| time (UTC) | temp F | wind direction | speed MPH | gust MPH | rain 1hr in | rain 24hr in | rain mn in | humidity % | barometer mb |
| 20260902221923 | 93 | 177 | 3.0 | 5.0 | 0.00 | 0.00 | 0.00 | 54 | 1015.2 |
| 20260902221422 | 93 | 180 | 4.0 | 5.0 | 0.00 | 0.00 | 0.00 | 52 | 1015.2 |
| 20260902220918 | 93 | 174 | 4.0 | 4.0 | 0.00 | 0.00 | 0.00 | 51 | 1015.3 |
| 20260902220417 | 93 | 182 | 5.0 | 6.0 | 0.00 | 0.00 | 0.00 | 51 | 1015.2 |
| 20260902215913 | 93 | 179 | 6.0 | 6.0 | 0.00 | 0.00 | 0.00 | 52 | 1015.2 |
| 20260902215408 | 93 | 183 | 5.0 | 7.0 | 0.00 | 0.00 | 0.00 | 52 | 1015.1 |
| 20260902214904 | 92 | 181 | 4.0 | 7.0 | 0.00 | 0.00 | 0.00 | 51 | 1015.0 |
| 20260902214403 | 93 | 191 | 5.0 | 7.0 | 0.00 | 0.00 | 0.00 | 51 | 1015.2 |
| 20260902213857 | 93 | 184 | 6.0 | 7.0 | 0.00 | 0.00 | 0.00 | 51 | 1015.2 |
| 20260902213354 | 94 | 182 | 4.0 | 6.0 | 0.00 | 0.00 | 0.00 | 50 | 1015.4 |
| 20260902212852 | 94 | 183 | 4.0 | 6.0 | 0.00 | 0.00 | 0.00 | 50 | 1015.3 |
| 20260902212349 | 95 | 187 | 5.0 | 6.0 | 0.00 | 0.00 | 0.00 | 50 | 1015.2 |
| 20260902211845 | 95 | 177 | 4.0 | 5.0 | 0.00 | 0.00 | 0.00 | 50 | 1015.4 |
| 20260902211340 | 95 | 195 | 5.0 | 5.0 | 0.00 | 0.00 | 0.00 | 51 | 1015.2 |
| 20260902210835 | 94 | 185 | 5.0 | 7.0 | 0.00 | 0.00 | 0.00 | 49 | 1015.3 |
| 20260902210335 | 94 | 179 | 5.0 | 6.0 | 0.00 | 0.00 | 0.00 | 50 | 1015.3 |
| 20260902205833 | 95 | 182 | 5.0 | 6.0 | 0.00 | 0.00 | 0.00 | 47 | 1015.4 |
| 20260902205328 | 95 | 195 | 3.0 | 5.0 | 0.00 | 0.00 | 0.00 | 48 | 1015.5 |
| 20260902204824 | 95 | 183 | 6.0 | 6.0 | 0.00 | 0.00 | 0.00 | 51 | 1015.4 |
| 20260902204318 | 96 | 177 | 5.0 | 7.0 | 0.00 | 0.00 | 0.00 | 49 | 1015.5 |
| 20260902203814 | 95 | 187 | 5.0 | 6.0 | 0.00 | 0.00 | 0.00 | 49 | 1015.4 |
| 20260902203308 | 95 | 180 | 4.0 | 6.0 | 0.00 | 0.00 | 0.00 | 48 | 1015.5 |
| 20260902202803 | 96 | 184 | 5.0 | 6.0 | 0.00 | 0.00 | 0.00 | 49 | 1015.3 |
| 20260902202259 | 95 | 188 | 4.0 | 6.0 | 0.00 | 0.00 | 0.00 | 50 | 1015.3 |
| 20260902201756 | 93 | 177 | 4.0 | 5.0 | 0.00 | 0.00 | 0.00 | 53 | 1015.6 |
| 20260902201255 | 94 | 180 | 4.0 | 5.0 | 0.00 | 0.00 | 0.00 | 51 | 1015.7 |
| 20260902200750 | 96 | 185 | 5.0 | 6.0 | 0.00 | 0.00 | 0.00 | 49 | 1015.3 |
| 20260902200246 | 96 | 179 | 3.0 | 4.0 | 0.00 | 0.00 | 0.00 | 49 | 1015.6 |
| 20260902195741 | 96 | 184 | 4.0 | 7.0 | 0.00 | 0.00 | 0.00 | 49 | 1015.7 |
| 20260902195240 | 96 | 185 | 5.0 | 7.0 | 0.00 | 0.00 | 0.00 | 47 | 1015.8 |
| 20260902194740 | 96 | 184 | 4.0 | 8.0 | 0.00 | 0.00 | 0.00 | 47 | 1015.6 |
| 20260902194235 | 95 | 180 | 3.0 | 5.0 | 0.00 | 0.00 | 0.00 | 52 | 1015.7 |
| 20260902193731 | 94 | 176 | 4.0 | 7.0 | 0.00 | 0.00 | 0.00 | 49 | 1015.8 |
| 20260902193226 | 95 | 173 | 3.0 | 6.0 | 0.00 | 0.00 | 0.00 | 50 | 1016.0 |
| 20260902192725 | 95 | 194 | 3.0 | 4.0 | 0.00 | 0.00 | 0.00 | 51 | 1015.9 |
| 20260902192224 | 94 | 186 | 4.0 | 5.0 | 0.00 | 0.00 | 0.00 | 50 | 1016.2 |
| 20260902191719 | 96 | 196 | 5.0 | 6.0 | 0.00 | 0.00 | 0.00 | 48 | 1016.1 |
| 20260902191213 | 95 | 132 | 1.0 | 5.0 | 0.00 | 0.00 | 0.00 | 46 | 1016.3 |
| 20260902190708 | 96 | 194 | 6.0 | 7.0 | 0.00 | 0.00 | 0.00 | 47 | 1016.1 |
| 20260902190203 | 97 | 201 | 6.0 | 7.0 | 0.00 | 0.00 | 0.00 | 48 | 1016.4 |
| 20260902185659 | 97 | 185 | 5.0 | 6.0 | 0.00 | 0.00 | 0.00 | 46 | 1016.6 |
| 20260902185155 | 96 | 182 | 3.0 | 5.0 | 0.00 | 0.00 | 0.00 | 49 | 1016.4 |
| 20260902184650 | 95 | 175 | 3.0 | 5.0 | 0.00 | 0.00 | 0.00 | 51 | 1016.6 |
| 20260902184145 | 95 | 170 | 3.0 | 4.0 | 0.00 | 0.00 | 0.00 | 49 | 1016.4 |
| 20260902183641 | 95 | 205 | 1.0 | 5.0 | 0.00 | 0.00 | 0.00 | 49 | 1016.4 |
| 20260902183137 | 95 | 192 | 3.0 | 4.0 | 0.00 | 0.00 | 0.00 | 52 | 1016.3 |
| 20260902182627 | 96 | 198 | 5.0 | 6.0 | 0.00 | 0.00 | 0.00 | 50 | 1016.4 |
| 20260902182124 | 97 | 180 | 3.0 | 7.0 | 0.00 | 0.00 | 0.00 | 47 | 1016.6 |
| 20260902181620 | 97 | 170 | 5.0 | 7.0 | 0.00 | 0.00 | 0.00 | 48 | 1016.6 |
| 20260902181118 | 95 | 203 | 5.0 | 6.0 | 0.00 | 0.00 | 0.00 | 50 | 1016.5 |
| 20260902180613 | 95 | 188 | 5.0 | 7.0 | 0.00 | 0.00 | 0.00 | 50 | 1016.7 |
| 20260902180109 | 96 | 190 | 4.0 | 7.0 | 0.00 | 0.00 | 0.00 | 49 | 1016.7 |
| 20260902175609 | 95 | 179 | 3.0 | 5.0 | 0.00 | 0.00 | 0.00 | 54 | 1016.9 |
| 20260902175104 | 94 | 174 | 3.0 | 4.0 | 0.00 | 0.00 | 0.00 | 54 | 1016.7 |
| 20260902174600 | 95 | 154 | 3.0 | 5.0 | 0.00 | 0.00 | 0.00 | 51 | 1016.8 |
| 20260902174055 | 93 | 188 | 6.0 | 6.0 | 0.00 | 0.00 | 0.00 | 54 | 1016.8 |
| 20260902173550 | 93 | 197 | 4.0 | 6.0 | 0.00 | 0.00 | 0.00 | 54 | 1017.0 |
| 20260902173045 | 95 | 200 | 5.0 | 7.0 | 0.00 | 0.00 | 0.00 | 52 | 1016.9 |
| 20260902172539 | 94 | 200 | 5.0 | 6.0 | 0.00 | 0.00 | 0.00 | 55 | 1016.8 |
| 20260902172034 | 95 | 197 | 4.0 | 6.0 | 0.00 | 0.00 | 0.00 | 55 | 1017.1 |
| 20260902171530 | 94 | 202 | 4.0 | 6.0 | 0.00 | 0.00 | 0.00 | 55 | 1017.2 |
| 20260902171026 | 94 | 159 | 5.0 | 7.0 | 0.00 | 0.00 | 0.00 | 54 | 1017.3 |
| 20260902170520 | 94 | 190 | 5.0 | 7.0 | 0.00 | 0.00 | 0.00 | 54 | 1017.0 |
| 20260902170016 | 95 | 194 | 4.0 | 7.0 | 0.00 | 0.00 | 0.00 | 56 | 1017.1 |
| 20260902165515 | 94 | 184 | 4.0 | 5.0 | 0.00 | 0.00 | 0.00 | 58 | 1017.1 |
| 20260902165010 | 93 | 160 | 6.0 | 7.0 | 0.00 | 0.00 | 0.00 | 57 | 1017.2 |
| 20260902164505 | 93 | 193 | 5.0 | 6.0 | 0.00 | 0.00 | 0.00 | 62 | 1017.2 |
| 20260902164004 | 92 | 188 | 7.0 | 7.0 | 0.00 | 0.00 | 0.00 | 61 | 1017.0 |
| 20260902163500 | 91 | 186 | 4.0 | 5.0 | 0.00 | 0.00 | 0.00 | 62 | 1017.3 |
| 20260902162957 | 91 | 186 | 5.0 | 6.0 | 0.00 | 0.00 | 0.00 | 62 | 1017.2 |
| 20260902162452 | 91 | 178 | 5.0 | 6.0 | 0.00 | 0.00 | 0.00 | 63 | 1017.4 |
| 20260902161947 | 91 | 169 | 4.0 | 6.0 | 0.00 | 0.00 | 0.00 | 63 | 1017.2 |
| 20260902161442 | 91 | 161 | 5.0 | 7.0 | 0.00 | 0.00 | 0.00 | 62 | 1017.7 |
| 20260902160938 | 91 | 181 | 4.0 | 4.0 | 0.00 | 0.00 | 0.00 | 66 | 1017.6 |
| 20260902160434 | 90 | 180 | 4.0 | 4.0 | 0.00 | 0.00 | 0.00 | 65 | 1017.6 |
| 20260902155931 | 90 | 183 | 5.0 | 5.0 | 0.00 | 0.00 | 0.00 | 66 | 1017.5 |
| 20260902155427 | 89 | 188 | 3.0 | 5.0 | 0.00 | 0.00 | 0.00 | 68 | 1017.4 |
| 20260902154920 | 89 | 195 | 6.0 | 6.0 | 0.00 | 0.00 | 0.00 | 69 | 1017.7 |
| 20260902154416 | 88 | 161 | 4.0 | 5.0 | 0.00 | 0.00 | 0.00 | 68 | 1017.7 |
| 20260902153915 | 88 | 161 | 5.0 | 6.0 | 0.00 | 0.00 | 0.00 | 67 | 1017.9 |
| 20260902153414 | 87 | 180 | 4.0 | 5.0 | 0.00 | 0.00 | 0.00 | 69 | 1017.7 |
| 20260902152910 | 87 | 177 | 4.0 | 5.0 | 0.00 | 0.00 | 0.00 | 70 | 1017.7 |
| 20260902152406 | 87 | 177 | 3.0 | 5.0 | 0.00 | 0.00 | 0.00 | 71 | 1017.9 |
| 20260902151901 | 86 | 179 | 4.0 | 6.0 | 0.00 | 0.00 | 0.00 | 70 | 1017.7 |
| 20260902151356 | 86 | 132 | 5.0 | 5.0 | 0.00 | 0.00 | 0.00 | 70 | 1018.0 |
| 20260902150851 | 86 | 148 | 5.0 | 5.0 | 0.00 | 0.00 | 0.00 | 71 | 1017.9 |
| 20260902150348 | 86 | 159 | 4.0 | 4.0 | 0.00 | 0.00 | 0.00 | 73 | 1017.9 |
| 20260902145847 | 85 | 164 | 3.0 | 4.0 | 0.00 | 0.00 | 0.00 | 72 | 1017.7 |
| 20260902145342 | 85 | 162 | 4.0 | 5.0 | 0.00 | 0.00 | 0.00 | 74 | 1017.9 |
| 20260902144837 | 84 | 156 | 6.0 | 6.0 | 0.00 | 0.00 | 0.00 | 75 | 1017.6 |
| 20260902144333 | 84 | 167 | 4.0 | 5.0 | 0.00 | 0.00 | 0.00 | 73 | 1017.7 |
| 20260902143827 | 84 | 179 | 4.0 | 5.0 | 0.00 | 0.00 | 0.00 | 74 | 1017.9 |
| 20260902143322 | 84 | 178 | 3.0 | 5.0 | 0.00 | 0.00 | 0.00 | 76 | 1017.9 |
| 20260902142818 | 84 | 212 | 1.0 | 3.0 | 0.00 | 0.00 | 0.00 | 75 | 1017.9 |
| 20260902142314 | 83 | 152 | 3.0 | 3.0 | 0.00 | 0.00 | 0.00 | 75 | 1017.9 |
| 20260902141809 | 83 | 167 | 4.0 | 5.0 | 0.00 | 0.00 | 0.00 | 76 | 1017.9 |
| 20260902141304 | 83 | 160 | 4.0 | 5.0 | 0.00 | 0.00 | 0.00 | 75 | 1018.0 |
| 20260902140758 | 83 | 176 | 3.0 | 3.0 | 0.00 | 0.00 | 0.00 | 76 | 1017.7 |
| 20260902140254 | 81 | 177 | 3.0 | 4.0 | 0.00 | 0.00 | 0.00 | 78 | 1017.9 |
| 20260902135752 | 81 | 167 | 3.0 | 5.0 | 0.00 | 0.00 | 0.00 | 78 | 1018.0 |
| 20260902135249 | 81 | 169 | 4.0 | 4.0 | 0.00 | 0.00 | 0.00 | 78 | 1017.7 |
| 20260902134748 | 81 | 170 | 4.0 | 4.0 | 0.00 | 0.00 | 0.00 | 79 | 1018.1 |
| 20260902134244 | 80 | 163 | 4.0 | 4.0 | 0.00 | 0.00 | 0.00 | 79 | 1017.6 |
| 20260902133739 | 80 | 163 | 4.0 | 4.0 | 0.00 | 0.00 | 0.00 | 79 | 1017.7 |
| 20260902133238 | 80 | 163 | 4.0 | 4.0 | 0.00 | 0.00 | 0.00 | 79 | 1017.9 |
| 20260902132733 | 80 | 174 | 4.0 | 4.0 | 0.00 | 0.00 | 0.00 | 79 | 1017.7 |
| 20260902132229 | 80 | 171 | 4.0 | 5.0 | 0.00 | 0.00 | 0.00 | 80 | 1017.9 |
| 20260902131724 | 79 | 166 | 4.0 | 5.0 | 0.00 | 0.00 | 0.00 | 82 | 1018.2 |
| 20260902131220 | 78 | 175 | 4.0 | 4.0 | 0.00 | 0.00 | 0.00 | 82 | 1017.4 |
| 20260902130721 | 78 | 175 | 4.0 | 5.0 | 0.00 | 0.00 | 0.00 | 82 | 1017.7 |
| 20260902130216 | 78 | 172 | 4.0 | 5.0 | 0.00 | 0.00 | 0.00 | 82 | 1018.0 |
| 20260902125711 | 77 | 172 | 3.0 | 5.0 | 0.00 | 0.00 | 0.00 | 83 | 1017.9 |
| 20260902125208 | 77 | 154 | 4.0 | 5.0 | 0.00 | 0.00 | 0.00 | 85 | 1017.7 |
| 20260902124704 | 76 | 159 | 4.0 | 5.0 | 0.00 | 0.00 | 0.00 | 86 | 1017.9 |
| 20260902124204 | 75 | 166 | 4.0 | 5.0 | 0.00 | 0.00 | 0.00 | 88 | 1017.6 |
| 20260902123659 | 74 | 171 | 4.0 | 5.0 | 0.00 | 0.00 | 0.00 | 89 | 1017.6 |
| 20260902123155 | 74 | 162 | 4.0 | 5.0 | 0.00 | 0.00 | 0.00 | 90 | 1017.5 |
| 20260902122648 | 74 | 173 | 4.0 | 5.0 | 0.00 | 0.00 | 0.00 | 89 | 1017.5 |
| 20260902122144 | 74 | 167 | 4.0 | 5.0 | 0.00 | 0.00 | 0.00 | 89 | 1017.4 |
| 20260902121638 | 74 | 159 | 5.0 | 5.0 | 0.00 | 0.00 | 0.00 | 90 | 1017.3 |
| 20260902121133 | 73 | 160 | 4.0 | 5.0 | 0.00 | 0.00 | 0.00 | 90 | 1017.3 |
| 20260902120624 | 73 | 163 | 4.0 | 5.0 | 0.00 | 0.00 | 0.00 | 90 | 1017.2 |
| 20260902120120 | 73 | 160 | 4.0 | 5.0 | 0.00 | 0.00 | 0.00 | 90 | 1017.2 |
| 20260902115615 | 73 | 164 | 4.0 | 5.0 | 0.00 | 0.00 | 0.00 | 91 | 1017.3 |
| 20260902115111 | 73 | 162 | 4.0 | 5.0 | 0.00 | 0.00 | 0.00 | 91 | 1017.0 |
| 20260902114607 | 73 | 147 | 5.0 | 5.0 | 0.00 | 0.00 | 0.00 | 91 | 1017.2 |
| 20260902114106 | 73 | 148 | 5.0 | 5.0 | 0.00 | 0.00 | 0.00 | 92 | 1017.1 |
| 20260902113602 | 73 | 147 | 4.0 | 5.0 | 0.00 | 0.00 | 0.00 | 92 | 1017.1 |
| 20260902113057 | 73 | 143 | 3.0 | 5.0 | 0.00 | 0.00 | 0.00 | 92 | 1017.1 |
| 20260902112552 | 73 | 141 | 3.0 | 5.0 | 0.00 | 0.00 | 0.00 | 92 | 1016.9 |
| 20260902112049 | 73 | 151 | 3.0 | 4.0 | 0.00 | 0.00 | 0.00 | 92 | 1016.9 |
| 20260902111545 | 73 | 139 | 4.0 | 5.0 | 0.00 | 0.00 | 0.00 | 91 | 1016.8 |
| 20260902111040 | 73 | 151 | 4.0 | 5.0 | 0.00 | 0.00 | 0.00 | 91 | 1017.1 |
| 20260902110536 | 73 | 146 | 4.0 | 4.0 | 0.00 | 0.00 | 0.00 | 91 | 1017.0 |
| 20260902110032 | 73 | 140 | 4.0 | 4.0 | 0.00 | 0.00 | 0.00 | 91 | 1016.9 |
| 20260902105531 | 73 | 138 | 4.0 | 5.0 | 0.00 | 0.00 | 0.00 | 91 | 1016.8 |
| 20260902105026 | 73 | 133 | 4.0 | 5.0 | 0.00 | 0.00 | 0.00 | 91 | 1016.7 |
| 20260902104522 | 73 | 129 | 3.0 | 5.0 | 0.00 | 0.00 | 0.00 | 91 | 1016.8 |
| 20260902104022 | 73 | 137 | 4.0 | 5.0 | 0.00 | 0.00 | 0.00 | 91 | 1017.0 |
| 20260902103517 | 73 | 144 | 3.0 | 5.0 | 0.00 | 0.00 | 0.00 | 91 | 1016.8 |
| 20260902103012 | 73 | 144 | 3.0 | 5.0 | 0.00 | 0.00 | 0.00 | 91 | 1016.5 |
| 20260902102509 | 73 | 137 | 4.0 | 5.0 | 0.00 | 0.00 | 0.00 | 91 | 1016.8 |
| 20260902102005 | 73 | 143 | 4.0 | 4.0 | 0.00 | 0.00 | 0.00 | 92 | 1016.9 |
| 20260902101500 | 73 | 147 | 4.0 | 4.0 | 0.00 | 0.00 | 0.00 | 92 | 1016.7 |
| 20260902100959 | 73 | 142 | 5.0 | 5.0 | 0.00 | 0.00 | 0.00 | 92 | 1016.7 |
| 20260902100453 | 73 | 145 | 4.0 | 5.0 | 0.00 | 0.00 | 0.00 | 92 | 1016.6 |
| 20260902095948 | 73 | 145 | 4.0 | 4.0 | 0.00 | 0.00 | 0.00 | 92 | 1016.5 |
| 20260902095443 | 73 | 147 | 4.0 | 5.0 | 0.00 | 0.00 | 0.00 | 93 | 1016.6 |
| 20260902094942 | 73 | 127 | 4.0 | 5.0 | 0.00 | 0.00 | 0.00 | 93 | 1016.8 |
| 20260902094438 | 73 | 134 | 3.0 | 4.0 | 0.00 | 0.00 | 0.00 | 93 | 1016.6 |
| 20260902093932 | 73 | 137 | 4.0 | 4.0 | 0.00 | 0.00 | 0.00 | 93 | 1016.6 |
| 20260902093427 | 73 | 125 | 4.0 | 5.0 | 0.00 | 0.00 | 0.00 | 92 | 1016.4 |
| 20260902092926 | 73 | 139 | 4.0 | 5.0 | 0.00 | 0.00 | 0.00 | 92 | 1016.5 |
| 20260902092417 | 73 | 145 | 4.0 | 5.0 | 0.00 | 0.00 | 0.00 | 91 | 1016.7 |
| 20260902091916 | 73 | 157 | 4.0 | 5.0 | 0.00 | 0.00 | 0.00 | 91 | 1016.6 |
| 20260902091412 | 73 | 149 | 4.0 | 5.0 | 0.00 | 0.00 | 0.00 | 91 | 1016.7 |
| 20260902090908 | 73 | 152 | 4.0 | 5.0 | 0.00 | 0.00 | 0.00 | 91 | 1016.5 |
| 20260902090408 | 73 | 147 | 5.0 | 5.0 | 0.00 | 0.00 | 0.00 | 91 | 1016.5 |
| 20260902085907 | 73 | 149 | 4.0 | 5.0 | 0.00 | 0.00 | 0.00 | 91 | 1016.3 |
| 20260902085402 | 73 | 150 | 4.0 | 5.0 | 0.00 | 0.00 | 0.00 | 92 | 1016.6 |
| 20260902084858 | 73 | 143 | 4.0 | 5.0 | 0.00 | 0.00 | 0.00 | 92 | 1016.2 |
| 20260902084354 | 73 | 145 | 4.0 | 5.0 | 0.00 | 0.00 | 0.00 | 92 | 1016.1 |
| 20260902083849 | 73 | 147 | 5.0 | 5.0 | 0.00 | 0.00 | 0.00 | 92 | 1016.2 |
| 20260902083349 | 73 | 143 | 3.0 | 4.0 | 0.00 | 0.00 | 0.00 | 92 | 1016.1 |
| 20260902082844 | 73 | 141 | 4.0 | 5.0 | 0.00 | 0.00 | 0.00 | 92 | 1016.1 |
| 20260902082340 | 74 | 144 | 4.0 | 4.0 | 0.00 | 0.00 | 0.00 | 91 | 1016.1 |
| 20260902081837 | 74 | 147 | 4.0 | 4.0 | 0.00 | 0.00 | 0.00 | 91 | 1015.9 |
| 20260902081332 | 74 | 155 | 5.0 | 6.0 | 0.00 | 0.00 | 0.00 | 91 | 1015.9 |
| 20260902080826 | 74 | 148 | 5.0 | 5.0 | 0.00 | 0.00 | 0.00 | 91 | 1016.0 |
| 20260902080323 | 74 | 150 | 4.0 | 5.0 | 0.00 | 0.00 | 0.00 | 92 | 1015.7 |
| 20260902075823 | 74 | 156 | 4.0 | 5.0 | 0.00 | 0.00 | 0.00 | 92 | 1016.0 |
| 20260902075319 | 74 | 148 | 5.0 | 5.0 | 0.00 | 0.00 | 0.00 | 92 | 1015.9 |
| 20260902074814 | 74 | 152 | 4.0 | 5.0 | 0.00 | 0.00 | 0.00 | 93 | 1016.0 |
| 20260902074309 | 74 | 151 | 4.0 | 5.0 | 0.00 | 0.00 | 0.00 | 93 | 1015.8 |
| 20260902073804 | 73 | 143 | 5.0 | 5.0 | 0.00 | 0.00 | 0.00 | 93 | 1015.7 |
| 20260902073301 | 73 | 149 | 4.0 | 4.0 | 0.00 | 0.00 | 0.00 | 93 | 1015.9 |
| 20260902072756 | 74 | 133 | 4.0 | 5.0 | 0.00 | 0.00 | 0.00 | 92 | 1016.0 |
| 20260902072251 | 74 | 149 | 3.0 | 4.0 | 0.00 | 0.00 | 0.00 | 92 | 1015.9 |
| 20260902071748 | 74 | 156 | 4.0 | 5.0 | 0.00 | 0.00 | 0.00 | 92 | 1016.1 |
| 20260902071243 | 74 | 156 | 4.0 | 5.0 | 0.00 | 0.00 | 0.00 | 92 | 1015.9 |
| 20260902070739 | 74 | 158 | 4.0 | 5.0 | 0.00 | 0.00 | 0.00 | 92 | 1015.7 |
| 20260902070239 | 74 | 168 | 3.0 | 4.0 | 0.00 | 0.00 | 0.00 | 91 | 1016.0 |
| 20260902065738 | 74 | 159 | 4.0 | 5.0 | 0.00 | 0.00 | 0.00 | 91 | 1016.1 |
| 20260902065233 | 75 | 155 | 4.0 | 5.0 | 0.00 | 0.00 | 0.00 | 91 | 1016.0 |
| 20260902064728 | 75 | 158 | 4.0 | 5.0 | 0.00 | 0.00 | 0.00 | 91 | 1015.7 |
| 20260902064224 | 75 | 168 | 4.0 | 5.0 | 0.00 | 0.00 | 0.00 | 91 | 1015.8 |
| 20260902063720 | 75 | 145 | 5.0 | 5.0 | 0.00 | 0.00 | 0.00 | 91 | 1015.8 |
| 20260902063220 | 75 | 149 | 5.0 | 5.0 | 0.00 | 0.00 | 0.00 | 90 | 1015.9 |
| 20260902062714 | 75 | 152 | 4.0 | 5.0 | 0.00 | 0.00 | 0.00 | 90 | 1016.0 |
| 20260902062209 | 75 | 157 | 4.0 | 4.0 | 0.00 | 0.00 | 0.00 | 90 | 1016.2 |
| 20260902061708 | 75 | 150 | 4.0 | 5.0 | 0.00 | 0.00 | 0.00 | 89 | 1016.0 |
| 20260902061203 | 75 | 146 | 5.0 | 5.0 | 0.00 | 0.00 | 0.00 | 89 | 1016.1 |
| 20260902060700 | 75 | 153 | 5.0 | 5.0 | 0.00 | 0.00 | 0.00 | 89 | 1016.1 |
| 20260902060155 | 75 | 160 | 4.0 | 5.0 | 0.00 | 0.00 | 0.00 | 89 | 1016.0 |
| 20260902055651 | 76 | 148 | 4.0 | 4.0 | 0.00 | 0.00 | 0.00 | 89 | 1016.2 |
| 20260902055147 | 76 | 151 | 4.0 | 4.0 | 0.00 | 0.00 | 0.00 | 89 | 1016.2 |
| 20260902054642 | 76 | 159 | 4.0 | 5.0 | 0.00 | 0.00 | 0.00 | 88 | 1015.9 |
| 20260902054138 | 76 | 153 | 4.0 | 5.0 | 0.00 | 0.00 | 0.00 | 88 | 1016.3 |
| 20260902053633 | 76 | 152 | 4.0 | 5.0 | 0.00 | 0.00 | 0.00 | 88 | 1015.9 |
| 20260902053133 | 76 | 153 | 4.0 | 5.0 | 0.00 | 0.00 | 0.00 | 87 | 1016.2 |
| 20260902052627 | 76 | 153 | 4.0 | 4.0 | 0.00 | 0.00 | 0.00 | 87 | 1016.1 |
| 20260902052123 | 76 | 151 | 4.0 | 5.0 | 0.00 | 0.00 | 0.00 | 87 | 1016.3 |
| 20260902051622 | 76 | 157 | 4.0 | 5.0 | 0.00 | 0.00 | 0.00 | 87 | 1016.1 |
| 20260902051121 | 77 | 151 | 4.0 | 4.0 | 0.00 | 0.00 | 0.00 | 86 | 1015.9 |
| 20260902050616 | 77 | 158 | 4.0 | 5.0 | 0.00 | 0.00 | 0.00 | 86 | 1016.0 |
| 20260902050111 | 77 | 158 | 4.0 | 5.0 | 0.00 | 0.00 | 0.00 | 86 | 1016.2 |
| 20260902045606 | 77 | 153 | 4.0 | 5.0 | 0.00 | 0.00 | 0.00 | 86 | 1016.1 |
| 20260902045102 | 77 | 160 | 4.0 | 4.0 | 0.00 | 0.00 | 0.00 | 86 | 1016.1 |
| 20260902044557 | 77 | 159 | 4.0 | 5.0 | 0.00 | 0.00 | 0.00 | 86 | 1016.2 |
| 20260902044052 | 77 | 152 | 5.0 | 5.0 | 0.00 | 0.00 | 0.00 | 87 | 1016.1 |
| 20260902043548 | 77 | 149 | 4.0 | 4.0 | 0.00 | 0.00 | 0.00 | 87 | 1016.0 |
| 20260902043043 | 77 | 147 | 4.0 | 5.0 | 0.00 | 0.00 | 0.00 | 87 | 1016.0 |
| 20260902042542 | 77 | 153 | 4.0 | 5.0 | 0.00 | 0.00 | 0.00 | 87 | 1016.2 |
| 20260902042037 | 77 | 137 | 4.0 | 5.0 | 0.00 | 0.00 | 0.00 | 86 | 1016.2 |
| 20260902041532 | 78 | 149 | 4.0 | 4.0 | 0.00 | 0.00 | 0.00 | 85 | 1016.2 |
| 20260902041027 | 78 | 153 | 4.0 | 5.0 | 0.00 | 0.00 | 0.00 | 85 | 1016.2 |
| 20260902040526 | 78 | 160 | 3.0 | 5.0 | 0.00 | 0.00 | 0.00 | 84 | 1016.2 |
| 20260902040026 | 78 | 157 | 4.0 | 5.0 | 0.00 | 0.00 | 0.00 | 84 | 1016.2 |
| 20260902035520 | 78 | 152 | 4.0 | 4.0 | 0.00 | 0.00 | 0.00 | 84 | 1016.1 |
| 20260902035015 | 78 | 158 | 4.0 | 5.0 | 0.00 | 0.00 | 0.00 | 83 | 1016.1 |
| 20260902034509 | 78 | 155 | 5.0 | 5.0 | 0.00 | 0.00 | 0.00 | 83 | 1015.9 |
| 20260902034008 | 78 | 167 | 4.0 | 4.0 | 0.00 | 0.00 | 0.00 | 83 | 1016.0 |
| 20260902033507 | 78 | 161 | 4.0 | 4.0 | 0.00 | 0.00 | 0.00 | 83 | 1016.1 |
| 20260902033002 | 78 | 165 | 3.0 | 4.0 | 0.00 | 0.00 | 0.00 | 83 | 1016.0 |
| 20260902032456 | 79 | 151 | 4.0 | 4.0 | 0.00 | 0.00 | 0.00 | 82 | 1016.1 |
| 20260902031951 | 79 | 162 | 4.0 | 5.0 | 0.00 | 0.00 | 0.00 | 82 | 1016.0 |
| 20260902031446 | 79 | 161 | 4.0 | 5.0 | 0.00 | 0.00 | 0.00 | 81 | 1016.0 |
| 20260902030943 | 79 | 157 | 4.0 | 5.0 | 0.00 | 0.00 | 0.00 | 81 | 1016.2 |
| 20260902030442 | 79 | 158 | 4.0 | 5.0 | 0.00 | 0.00 | 0.00 | 81 | 1016.1 |
| 20260902025940 | 80 | 156 | 4.0 | 5.0 | 0.00 | 0.00 | 0.00 | 81 | 1016.1 |
| 20260902025436 | 80 | 155 | 5.0 | 5.0 | 0.00 | 0.00 | 0.00 | 80 | 1016.1 |
| 20260902024931 | 80 | 155 | 4.0 | 4.0 | 0.00 | 0.00 | 0.00 | 80 | 1016.2 |
| 20260902024427 | 80 | 158 | 4.0 | 5.0 | 0.00 | 0.00 | 0.00 | 80 | 1016.1 |
| 20260902023922 | 80 | 155 | 4.0 | 4.0 | 0.00 | 0.00 | 0.00 | 81 | 1016.1 |
| 20260902023418 | 80 | 149 | 4.0 | 4.0 | 0.00 | 0.00 | 0.00 | 81 | 1016.4 |
| 20260902022916 | 80 | 153 | 4.0 | 4.0 | 0.00 | 0.00 | 0.00 | 80 | 1016.4 |
| 20260902022411 | 80 | 156 | 4.0 | 4.0 | 0.00 | 0.00 | 0.00 | 79 | 1016.0 |
| 20260902021907 | 80 | 154 | 4.0 | 4.0 | 0.00 | 0.00 | 0.00 | 79 | 1016.2 |
| 20260902021402 | 80 | 152 | 3.0 | 4.0 | 0.00 | 0.00 | 0.00 | 80 | 1016.0 |
| 20260902020858 | 80 | 149 | 3.0 | 4.0 | 0.00 | 0.00 | 0.00 | 80 | 1016.2 |
| 20260902020354 | 80 | 157 | 3.0 | 4.0 | 0.00 | 0.00 | 0.00 | 79 | 1016.2 |
| 20260902015849 | 81 | 149 | 3.0 | 4.0 | 0.00 | 0.00 | 0.00 | 78 | 1016.0 |
| 20260902015344 | 81 | 146 | 4.0 | 4.0 | 0.00 | 0.00 | 0.00 | 77 | 1016.0 |
| 20260902014840 | 82 | 152 | 3.0 | 4.0 | 0.00 | 0.00 | 0.00 | 76 | 1016.0 |
| 20260902014337 | 82 | 164 | 3.0 | 4.0 | 0.00 | 0.00 | 0.00 | 75 | 1016.0 |
| 20260902013835 | 82 | 151 | 4.0 | 4.0 | 0.00 | 0.00 | 0.00 | 74 | 1016.0 |
| 20260902013331 | 83 | 153 | 4.0 | 4.0 | 0.00 | 0.00 | 0.00 | 73 | 1015.8 |
| 20260902012826 | 83 | 163 | 4.0 | 4.0 | 0.00 | 0.00 | 0.00 | 72 | 1016.0 |
| 20260902012322 | 83 | 167 | 4.0 | 4.0 | 0.00 | 0.00 | 0.00 | 72 | 1015.7 |
| 20260902011818 | 83 | 166 | 4.0 | 4.0 | 0.00 | 0.00 | 0.00 | 72 | 1015.8 |
| 20260902011312 | 83 | 151 | 4.0 | 4.0 | 0.00 | 0.00 | 0.00 | 72 | 1015.9 |
| 20260902010811 | 83 | 154 | 3.0 | 4.0 | 0.00 | 0.00 | 0.00 | 71 | 1015.5 |
| 20260902010307 | 83 | 154 | 3.0 | 4.0 | 0.00 | 0.00 | 0.00 | 71 | 1015.7 |
| 20260902005805 | 83 | 155 | 3.0 | 4.0 | 0.00 | 0.00 | 0.00 | 71 | 1015.9 |
| 20260902005300 | 83 | 153 | 3.0 | 4.0 | 0.00 | 0.00 | 0.00 | 71 | 1015.6 |
| 20260902004754 | 83 | 153 | 3.0 | 4.0 | 0.00 | 0.00 | 0.00 | 72 | 1015.5 |
| 20260902004250 | 83 | 143 | 4.0 | 4.0 | 0.00 | 0.00 | 0.00 | 71 | 1015.5 |
| 20260902003739 | 83 | 154 | 3.0 | 4.0 | 0.00 | 0.00 | 0.00 | 71 | 1015.5 |
| 20260902003235 | 83 | 152 | 3.0 | 4.0 | 0.00 | 0.00 | 0.00 | 71 | 1015.8 |
| 20260902002730 | 83 | 150 | 3.0 | 4.0 | 0.00 | 0.00 | 0.00 | 71 | 1015.6 |
| 20260902002230 | 84 | 148 | 4.0 | 4.0 | 0.00 | 0.00 | 0.00 | 72 | 1015.6 |
| 20260902001726 | 84 | 139 | 3.0 | 4.0 | 0.00 | 0.00 | 0.00 | 72 | 1015.8 |
| 20260902001226 | 84 | 145 | 3.0 | 4.0 | 0.00 | 0.00 | 0.00 | 72 | 1015.6 |
| 20260902000720 | 84 | 152 | 3.0 | 3.0 | 0.00 | 0.00 | 0.00 | 72 | 1015.7 |
| 20260902000215 | 85 | 158 | 3.0 | 4.0 | 0.00 | 0.00 | 0.00 | 71 | 1015.9 |
| 20260901235714 | 85 | 152 | 3.0 | 3.0 | 0.00 | 0.00 | 0.00 | 71 | 1015.6 |
| 20260901235209 | 85 | 149 | 3.0 | 4.0 | 0.00 | 0.00 | 0.00 | 70 | 1015.6 |
| 20260901234703 | 86 | 150 | 3.0 | 3.0 | 0.00 | 0.00 | 0.00 | 70 | 1015.7 |
| 20260901234158 | 86 | 154 | 3.0 | 4.0 | 0.00 | 0.00 | 0.00 | 69 | 1015.6 |
| 20260901233653 | 87 | 154 | 3.0 | 4.0 | 0.00 | 0.00 | 0.00 | 68 | 1016.0 |
| 20260901233149 | 87 | 163 | 3.0 | 3.0 | 0.00 | 0.00 | 0.00 | 66 | 1015.7 |
| 20260901232643 | 87 | 171 | 3.0 | 4.0 | 0.00 | 0.00 | 0.00 | 65 | 1015.7 |
| 20260901232133 | 88 | 174 | 3.0 | 4.0 | 0.00 | 0.00 | 0.00 | 63 | 1015.9 |
| 20260901231630 | 88 | 176 | 3.0 | 4.0 | 0.00 | 0.00 | 0.00 | 63 | 1015.6 |
| 20260901231126 | 88 | 176 | 4.0 | 4.0 | 0.00 | 0.00 | 0.00 | 61 | 1015.9 |
| 20260901230621 | 89 | 177 | 4.0 | 4.0 | 0.00 | 0.00 | 0.00 | 61 | 1015.9 |
| 20260901230115 | 89 | 178 | 4.0 | 5.0 | 0.00 | 0.00 | 0.00 | 59 | 1015.7 |
| 20260901225611 | 89 | 178 | 4.0 | 4.0 | 0.00 | 0.00 | 0.00 | 58 | 1015.7 |
| 20260901225110 | 90 | 182 | 4.0 | 5.0 | 0.00 | 0.00 | 0.00 | 56 | 1015.8 |
| 20260901224607 | 90 | 180 | 3.0 | 4.0 | 0.00 | 0.00 | 0.00 | 56 | 1015.8 |
| 20260901224103 | 90 | 182 | 5.0 | 5.0 | 0.00 | 0.00 | 0.00 | 55 | 1015.7 |
| 20260901223557 | 90 | 177 | 5.0 | 5.0 | 0.00 | 0.00 | 0.00 | 56 | 1015.9 |
| 20260901223053 | 91 | 180 | 5.0 | 5.0 | 0.00 | 0.00 | 0.00 | 55 | 1015.7 |
| 20260901222549 | 91 | 180 | 5.0 | 5.0 | 0.00 | 0.00 | 0.00 | 55 | 1015.6 |